GW7169 Weather Reports


time (UTC)temp
C
wind
direction
speed
KPH
gust
KPH
rain 1hr
cm
rain 24hr
cm
rain mn
cm
humidity
%
barometer
mb
20260906125057 32 215 9.7 11.3 0.00 0.00 0.00 25 1012.5
20260906124557 32 248 3.2 3.2 0.00 0.00 0.00 24 1012.5
20260906124057 32 248 3.2 3.2 0.00 0.00 0.00 24 1012.2
20260906123557 32 183 3.2 3.2 0.00 0.00 0.00 24 1012.5
20260906123057 33 310 8.0 11.3 0.00 0.00 0.00 24 1012.5
20260906122557 33 298 6.4 9.7 0.00 0.00 0.00 24 1012.5
20260906122058 32 318 9.7 14.5 0.00 0.00 0.00 25 1012.5
20260906121557 33 118 4.8 4.8 0.00 0.00 0.00 25 1012.5
20260906121057 33 230 1.6 3.2 0.00 0.00 0.00 25 1012.9
20260906120557 32 338 1.6 1.6 0.00 0.00 0.00 25 1012.5
20260906120057 32 265 3.2 3.2 0.00 0.00 0.00 25 1012.5
20260906115557 32 95 4.8 4.8 0.00 0.00 0.00 25 1012.9
20260906115057 33 224 6.4 8.0 0.00 0.00 0.00 24 1012.9
20260906114557 33 105 4.8 8.0 0.00 0.00 0.00 24 1012.9
20260906114057 33 293 6.4 9.7 0.00 0.00 0.00 23 1012.9
20260906113557 33 299 11.3 17.7 0.00 0.00 0.00 24 1012.9
20260906113057 32 267 4.8 8.0 0.00 0.00 0.00 24 1012.9
20260906112557 32 324 4.8 4.8 0.00 0.00 0.00 24 1012.9
20260906112058 32 211 11.3 17.7 0.00 0.00 0.00 24 1012.9
20260906111557 32 275 9.7 11.3 0.00 0.00 0.00 24 1013.2
20260906111057 33 237 3.2 3.2 0.00 0.00 0.00 24 1012.9
20260906110558 32 263 4.8 4.8 0.00 0.00 0.00 24 1012.9
20260906110057 32 269 3.2 3.2 0.00 0.00 0.00 24 1012.9
20260906105557 32 273 3.2 3.2 0.00 0.00 0.00 24 1012.9
20260906105058 32 29 1.6 3.2 0.00 0.00 0.00 24 1012.9
20260906104557 32 319 3.2 4.8 0.00 0.00 0.00 24 1013.2
20260906104057 32 206 9.7 12.9 0.00 0.00 0.00 24 1013.2
20260906103557 32 308 4.8 8.0 0.00 0.00 0.00 25 1013.2
20260906103057 32 222 14.5 17.7 0.00 0.00 0.00 25 1012.9
20260906102557 32 249 3.2 4.8 0.00 0.00 0.00 25 1013.2
20260906102057 32 32 3.2 4.8 0.00 0.00 0.00 25 1013.2
20260906101557 31 296 8.0 9.7 0.00 0.00 0.00 25 1013.2
20260906101057 31 262 4.8 4.8 0.00 0.00 0.00 26 1013.2
20260906100558 31 3 4.8 4.8 0.00 0.00 0.00 26 1013.2
20260906100057 31 334 4.8 4.8 0.00 0.00 0.00 26 1013.2
20260906095557 31 139 8.0 11.3 0.00 0.00 0.00 26 1013.2
20260906095057 31 299 11.3 16.1 0.00 0.00 0.00 26 1013.5
20260906094557 31 182 11.3 16.1 0.00 0.00 0.00 26 1013.5
20260906094057 31 326 4.8 4.8 0.00 0.00 0.00 26 1013.5
20260906093556 31 237 4.8 4.8 0.00 0.00 0.00 25 1013.5
20260906093057 31 211 1.6 1.6 0.00 0.00 0.00 25 1013.5
20260906092558 31 133 3.2 3.2 0.00 0.00 0.00 24 1013.5
20260906092057 31 235 9.7 14.5 0.00 0.00 0.00 25 1013.5
20260906091557 31 327 4.8 9.7 0.00 0.00 0.00 26 1013.5
20260906091057 31 322 9.7 14.5 0.00 0.00 0.00 26 1013.9
20260906090557 30 225 8.0 9.7 0.00 0.00 0.00 27 1013.5
20260906090058 30 323 8.0 9.7 0.00 0.00 0.00 27 1013.9
20260906085558 30 269 1.6 4.8 0.00 0.00 0.00 27 1013.5
20260906085059 30 233 4.8 8.0 0.00 0.00 0.00 27 1013.9
20260906084558 30 327 4.8 8.0 0.00 0.00 0.00 27 1013.9
20260906084058 30 274 4.8 8.0 0.00 0.00 0.00 27 1013.9
20260906083557 30 233 4.8 8.0 0.00 0.00 0.00 28 1013.9
20260906083057 30 253 8.0 9.7 0.00 0.00 0.00 28 1014.2
20260906082558 30 238 8.0 11.3 0.00 0.00 0.00 27 1014.2
20260906082057 30 296 11.3 17.7 0.00 0.00 0.00 27 1014.2
20260906081557 30 305 4.8 9.7 0.00 0.00 0.00 28 1013.9
20260906081057 30 260 11.3 14.5 0.00 0.00 0.00 28 1014.2
20260906080557 30 183 6.4 8.0 0.00 0.00 0.00 29 1014.2
20260906080058 30 236 3.2 4.8 0.00 0.00 0.00 27 1014.2
20260906075557 30 254 3.2 4.8 0.00 0.00 0.00 31 1014.2
20260906075057 29 253 0.0 0.0 0.00 0.00 0.00 37 1014.2
20260906074556 28 208 1.6 1.6 0.00 0.00 0.00 42 1014.2
20260906074057 28 226 3.2 3.2 0.00 0.00 0.00 45 1014.2
20260906073557 28 303 1.6 1.6 0.00 0.00 0.00 45 1014.2
20260906073057 27 301 1.6 1.6 0.00 0.00 0.00 46 1014.2
20260906072557 27 344 1.6 0.0 0.00 0.00 0.00 47 1014.2
20260906072057 27 253 1.6 0.0 0.00 0.00 0.00 46 1014.6
20260906071558 27 238 1.6 1.6 0.00 0.00 0.00 46 1014.6
20260906071057 27 261 1.6 1.6 0.00 0.00 0.00 47 1014.6
20260906070628 27 294 0.0 0.0 0.00 0.00 0.00 46 1014.6
20260906070057 27 225 1.6 1.6 0.00 0.00 0.00 47 1014.6
20260906065557 27 339 1.6 1.6 0.00 0.00 0.00 48 1014.6
20260906065057 27 304 0.0 0.0 0.00 0.00 0.00 48 1014.6
20260906064557 26 281 0.0 0.0 0.00 0.00 0.00 47 1014.9
20260906064057 26 101 1.6 0.0 0.00 0.00 0.00 46 1014.9
20260906063557 26 137 1.6 1.6 0.00 0.00 0.00 48 1014.9
20260906063057 26 290 0.0 0.0 0.00 0.00 0.00 49 1014.6
20260906062557 26 288 1.6 3.2 0.00 0.00 0.00 48 1014.9
20260906062057 26 254 1.6 3.2 0.00 0.00 0.00 47 1014.6
20260906061558 26 225 0.0 0.0 0.00 0.00 0.00 47 1014.6
20260906061058 26 352 1.6 1.6 0.00 0.00 0.00 47 1014.9
20260906060557 25 256 0.0 0.0 0.00 0.00 0.00 48 1014.6
20260906060057 25 181 1.6 1.6 0.00 0.00 0.00 48 1014.6
20260906055557 25 231 1.6 1.6 0.00 0.00 0.00 49 1014.6
20260906055057 25 264 1.6 1.6 0.00 0.00 0.00 51 1014.9
20260906054557 25 208 0.0 0.0 0.00 0.00 0.00 54 1014.6
20260906054058 25 76 1.6 0.0 0.00 0.00 0.00 55 1014.6
20260906053557 25 78 1.6 0.0 0.00 0.00 0.00 55 1014.9
20260906053057 24 114 0.0 0.0 0.00 0.00 0.00 56 1014.6
20260906052557 23 204 1.6 1.6 0.00 0.00 0.00 57 1014.9
20260906052057 23 42 1.6 0.0 0.00 0.00 0.00 58 1014.6
20260906051557 23 349 1.6 1.6 0.00 0.00 0.00 58 1014.9
20260906051057 23 60 0.0 0.0 0.00 0.00 0.00 58 1014.6
20260906050557 23 25 0.0 0.0 0.00 0.00 0.00 60 1014.6
20260906050057 22 62 0.0 0.0 0.00 0.00 0.00 62 1014.9
20260906045557 22 45 1.6 1.6 0.00 0.00 0.00 62 1014.6
20260906045057 23 97 0.0 0.0 0.00 0.00 0.00 61 1014.9
20260906044557 23 173 0.0 0.0 0.00 0.00 0.00 62 1014.9
20260906044057 22 165 0.0 0.0 0.00 0.00 0.00 64 1014.6
20260906043557 22 253 0.0 0.0 0.00 0.00 0.00 65 1014.6
20260906043058 22 3 0.0 0.0 0.00 0.00 0.00 64 1014.6
20260906042557 22 48 1.6 1.6 0.00 0.00 0.00 65 1014.6
20260906042057 21 58 0.0 0.0 0.00 0.00 0.00 66 1014.6
20260906041557 21 58 0.0 0.0 0.00 0.00 0.00 66 1014.6
20260906041057 21 47 1.6 1.6 0.00 0.00 0.00 68 1014.6
20260906040557 21 47 1.6 1.6 0.00 0.00 0.00 68 1014.6
20260906040104 21 49 1.6 1.6 0.00 0.00 0.00 68 1014.2
20260906035558 21 49 1.6 1.6 0.00 0.00 0.00 68 1014.2
20260906035057 21 49 1.6 1.6 0.00 0.00 0.00 68 1014.2
20260906034557 21 279 1.6 1.6 0.00 0.00 0.00 67 1014.2
20260906034057 21 49 0.0 1.6 0.00 0.00 0.00 67 1014.2
20260906033557 21 50 1.6 1.6 0.00 0.00 0.00 67 1014.2
20260906033058 21 45 1.6 1.6 0.00 0.00 0.00 67 1014.2
20260906032557 21 85 1.6 1.6 0.00 0.00 0.00 65 1014.2
20260906032057 21 307 1.6 3.2 0.00 0.00 0.00 61 1013.9
20260906031558 23 67 1.6 1.6 0.00 0.00 0.00 53 1013.9
20260906031057 24 276 0.0 0.0 0.00 0.00 0.00 35 1013.9
20260906030558 24 176 3.2 3.2 0.00 0.00 0.00 33 1013.5
20260906030057 24 116 1.6 1.6 0.00 0.00 0.00 33 1013.9
20260906025557 24 299 1.6 1.6 0.00 0.00 0.00 34 1013.9
20260906025057 24 141 9.7 11.3 0.00 0.00 0.00 33 1013.9
20260906024557 24 242 8.0 9.7 0.00 0.00 0.00 33 1013.5
20260906024057 24 242 8.0 9.7 0.00 0.00 0.00 33 1013.5
20260906023557 24 242 3.2 4.8 0.00 0.00 0.00 33 1013.9
20260906023057 24 254 8.0 9.7 0.00 0.00 0.00 33 1013.9
20260906022558 24 296 4.8 8.0 0.00 0.00 0.00 33 1013.5
20260906022057 24 3 4.8 4.8 0.00 0.00 0.00 34 1013.5
20260906021558 24 271 3.2 3.2 0.00 0.00 0.00 34 1013.5
20260906021057 24 253 3.2 3.2 0.00 0.00 0.00 34 1013.5
20260906020557 24 343 1.6 3.2 0.00 0.00 0.00 34 1013.5
20260906020057 25 273 4.8 9.7 0.00 0.00 0.00 34 1013.5
20260906015557 24 252 3.2 3.2 0.00 0.00 0.00 34 1013.2
20260906015057 24 300 1.6 1.6 0.00 0.00 0.00 34 1013.5
20260906014557 24 267 1.6 1.6 0.00 0.00 0.00 35 1013.5
20260906014058 24 262 4.8 8.0 0.00 0.00 0.00 35 1013.2
20260906013557 25 268 6.4 8.0 0.00 0.00 0.00 35 1013.5
20260906013057 24 55 3.2 8.0 0.00 0.00 0.00 35 1013.5
20260906012557 24 319 4.8 4.8 0.00 0.00 0.00 36 1013.2
20260906012057 24 319 4.8 4.8 0.00 0.00 0.00 36 1013.2
20260906011557 24 241 3.2 3.2 0.00 0.00 0.00 37 1013.2
20260906011057 24 330 3.2 3.2 0.00 0.00 0.00 37 1013.2
20260906010557 24 185 4.8 4.8 0.00 0.00 0.00 38 1013.2
20260906010057 24 254 1.6 3.2 0.00 0.00 0.00 39 1013.2
20260906005557 24 267 3.2 3.2 0.00 0.00 0.00 38 1013.2
20260906005058 24 216 3.2 4.8 0.00 0.00 0.00 39 1013.2
20260906004558 24 245 4.8 9.7 0.00 0.00 0.00 39 1013.2
20260906004057 24 191 1.6 9.7 0.00 0.00 0.00 39 1013.2
20260906003557 24 199 4.8 8.0 0.00 0.00 0.00 40 1013.5
20260906003058 24 281 3.2 3.2 0.00 0.00 0.00 40 1013.5
20260906002557 24 219 6.4 8.0 0.00 0.00 0.00 40 1013.5
20260906002057 24 219 6.4 8.0 0.00 0.00 0.00 40 1013.5
20260906001557 24 147 3.2 4.8 0.00 0.00 0.00 40 1013.5
20260906001057 24 244 3.2 4.8 0.00 0.00 0.00 41 1013.5
20260906000556 25 226 3.2 3.2 0.00 0.00 0.00 40 1013.2
20260906000057 25 292 6.4 9.7 0.00 0.00 0.00 41 1013.5
20260905235557 25 231 3.2 4.8 0.00 0.00 0.00 41 1013.2
20260905235057 25 287 3.2 4.8 0.00 0.00 0.00 43 1013.2
20260905234557 25 287 3.2 4.8 0.00 0.00 0.00 43 1013.2
20260905234057 25 287 3.2 4.8 0.00 0.00 0.00 43 1013.5
20260905233557 25 287 3.2 4.8 0.00 0.00 0.00 43 1013.5
20260905233057 25 234 4.8 9.7 0.00 0.00 0.00 43 1013.5
20260905232556 25 63 3.2 4.8 0.00 0.00 0.00 44 1013.5
20260905232057 25 245 3.2 3.2 0.00 0.00 0.00 44 1013.2
20260905231557 25 246 1.6 3.2 0.00 0.00 0.00 45 1013.5
20260905231057 24 283 3.2 4.8 0.00 0.00 0.00 46 1013.5
20260905230557 23 90 1.6 3.2 0.00 0.00 0.00 48 1013.5
20260905230057 23 36 0.0 0.0 0.00 0.00 0.00 49 1013.5
20260905225557 23 77 1.6 0.0 0.00 0.00 0.00 51 1013.5
20260905225057 23 81 4.8 4.8 0.00 0.00 0.00 52 1013.5
20260905224557 23 58 0.0 0.0 0.00 0.00 0.00 52 1013.9
20260905224057 23 58 0.0 0.0 0.00 0.00 0.00 51 1013.5
20260905223557 23 58 1.6 0.0 0.00 0.00 0.00 50 1013.5
20260905223057 23 90 1.6 1.6 0.00 0.00 0.00 50 1013.5
20260905222557 23 92 1.6 1.6 0.00 0.00 0.00 50 1013.5
20260905222058 23 171 0.0 0.0 0.00 0.00 0.00 49 1013.5
20260905221630 23 172 0.0 0.0 0.00 0.00 0.00 49 1013.5
20260905221057 23 172 1.6 1.6 0.00 0.00 0.00 49 1013.9
20260905220557 24 236 0.0 0.0 0.00 0.00 0.00 48 1014.2
20260905220057 24 236 0.0 0.0 0.00 0.00 0.00 48 1013.9
20260905215557 24 231 1.6 1.6 0.00 0.00 0.00 48 1013.9
20260905215057 24 151 1.6 1.6 0.00 0.00 0.00 48 1013.9
20260905214557 24 151 1.6 1.6 0.00 0.00 0.00 48 1013.9
20260905214057 24 132 1.6 1.6 0.00 0.00 0.00 48 1013.9
20260905213557 24 132 1.6 1.6 0.00 0.00 0.00 48 1013.9
20260905213057 24 128 0.0 0.0 0.00 0.00 0.00 48 1014.2
20260905212558 24 128 1.6 1.6 0.00 0.00 0.00 48 1014.2
20260905212057 24 91 0.0 0.0 0.00 0.00 0.00 48 1014.2
20260905211557 24 79 0.0 0.0 0.00 0.00 0.00 48 1013.9
20260905211057 24 78 0.0 0.0 0.00 0.00 0.00 48 1014.2
20260905210558 24 78 0.0 0.0 0.00 0.00 0.00 48 1014.2
20260905210057 25 78 0.0 0.0 0.00 0.00 0.00 48 1014.2
20260905205557 25 73 0.0 0.0 0.00 0.00 0.00 47 1014.2
20260905205058 25 60 0.0 0.0 0.00 0.00 0.00 47 1014.2
20260905204557 25 59 0.0 0.0 0.00 0.00 0.00 47 1014.2
20260905204057 25 60 0.0 0.0 0.00 0.00 0.00 46 1014.6
20260905203557 25 65 0.0 0.0 0.00 0.00 0.00 47 1014.2
20260905203057 25 65 0.0 0.0 0.00 0.00 0.00 46 1014.2
20260905202558 25 65 0.0 0.0 0.00 0.00 0.00 46 1014.2
20260905202057 25 65 0.0 0.0 0.00 0.00 0.00 46 1014.2
20260905201557 25 65 0.0 0.0 0.00 0.00 0.00 47 1014.2
20260905201057 25 65 0.0 0.0 0.00 0.00 0.00 47 1014.2
20260905200557 25 65 0.0 0.0 0.00 0.00 0.00 46 1014.2
20260905200057 25 65 0.0 0.0 0.00 0.00 0.00 46 1014.2
20260905195559 25 63 0.0 0.0 0.00 0.00 0.00 46 1014.2
20260905195057 25 37 0.0 0.0 0.00 0.00 0.00 45 1014.2
20260905194557 25 82 0.0 0.0 0.00 0.00 0.00 45 1014.2
20260905194057 25 82 0.0 0.0 0.00 0.00 0.00 44 1014.2
20260905193558 26 90 0.0 0.0 0.00 0.00 0.00 43 1014.2
20260905193057 26 87 0.0 0.0 0.00 0.00 0.00 42 1014.2
20260905192557 26 68 0.0 0.0 0.00 0.00 0.00 42 1014.2
20260905192058 26 68 0.0 0.0 0.00 0.00 0.00 41 1014.2
20260905191557 26 64 1.6 0.0 0.00 0.00 0.00 41 1014.6
20260905191057 26 63 0.0 0.0 0.00 0.00 0.00 41 1014.2
20260905190557 26 3 1.6 1.6 0.00 0.00 0.00 41 1014.2
20260905190057 26 208 1.6 1.6 0.00 0.00 0.00 40 1014.2
20260905185558 26 279 1.6 3.2 0.00 0.00 0.00 40 1014.2
20260905185057 26 244 3.2 3.2 0.00 0.00 0.00 40 1014.2
20260905184557 26 48 4.8 4.8 0.00 0.00 0.00 40 1014.2
20260905184057 26 240 1.6 3.2 0.00 0.00 0.00 39 1014.2
20260905183557 26 150 3.2 3.2 0.00 0.00 0.00 39 1014.2
20260905183058 26 83 0.0 0.0 0.00 0.00 0.00 39 1014.2
20260905182557 26 115 1.6 1.6 0.00 0.00 0.00 38 1014.2
20260905182058 26 256 1.6 1.6 0.00 0.00 0.00 38 1014.2
20260905181558 26 257 4.8 8.0 0.00 0.00 0.00 38 1014.2
20260905181057 26 261 3.2 4.8 0.00 0.00 0.00 38 1014.2
20260905180557 26 180 4.8 4.8 0.00 0.00 0.00 38 1014.2
20260905180057 26 57 1.6 1.6 0.00 0.00 0.00 38 1014.2
20260905175557 27 282 4.8 8.0 0.00 0.00 0.00 38 1014.2
20260905175057 27 195 4.8 4.8 0.00 0.00 0.00 38 1014.2
20260905174558 27 159 3.2 3.2 0.00 0.00 0.00 38 1014.2
20260905174057 27 268 4.8 4.8 0.00 0.00 0.00 39 1013.9
20260905173557 27 119 3.2 3.2 0.00 0.00 0.00 40 1013.9
20260905173057 27 214 4.8 4.8 0.00 0.00 0.00 40 1013.9
20260905172557 27 242 3.2 3.2 0.00 0.00 0.00 40 1013.9
20260905172057 27 239 3.2 4.8 0.00 0.00 0.00 40 1013.9
20260905171557 27 249 3.2 3.2 0.00 0.00 0.00 40 1013.9
20260905171058 27 340 3.2 3.2 0.00 0.00 0.00 41 1013.5
20260905170557 27 244 3.2 3.2 0.00 0.00 0.00 41 1013.9
20260905170057 27 72 1.6 0.0 0.00 0.00 0.00 42 1013.5
20260905165557 27 72 1.6 0.0 0.00 0.00 0.00 42 1013.9
20260905165057 27 59 0.0 0.0 0.00 0.00 0.00 43 1013.5
20260905164557 27 56 0.0 0.0 0.00 0.00 0.00 43 1013.5
20260905164057 27 16 0.0 0.0 0.00 0.00 0.00 42 1013.5
20260905163557 27 15 0.0 0.0 0.00 0.00 0.00 42 1013.5
20260905163058 27 14 0.0 0.0 0.00 0.00 0.00 42 1013.5
20260905162557 27 18 0.0 0.0 0.00 0.00 0.00 42 1013.5
20260905162057 27 18 0.0 0.0 0.00 0.00 0.00 41 1013.5
20260905161557 27 127 0.0 0.0 0.00 0.00 0.00 41 1013.5
20260905161057 28 141 0.0 0.0 0.00 0.00 0.00 41 1013.2
20260905160557 28 126 1.6 0.0 0.00 0.00 0.00 41 1013.5
20260905160057 28 99 0.0 0.0 0.00 0.00 0.00 41 1013.2
20260905155557 28 161 3.2 3.2 0.00 0.00 0.00 40 1013.5
20260905155056 28 312 0.0 0.0 0.00 0.00 0.00 40 1013.2
20260905154557 28 312 0.0 0.0 0.00 0.00 0.00 39 1013.2
20260905154058 28 204 1.6 1.6 0.00 0.00 0.00 38 1013.5
20260905153557 29 56 1.6 0.0 0.00 0.00 0.00 37 1013.2
20260905153108 29 217 0.0 0.0 0.00 0.00 0.00 36 1013.5
20260905152559 29 281 1.6 1.6 0.00 0.00 0.00 36 1013.5
20260905152057 29 262 0.0 0.0 0.00 0.00 0.00 36 1013.2
20260905151557 30 187 1.6 1.6 0.00 0.00 0.00 36 1013.2
20260905151057 30 232 1.6 1.6 0.00 0.00 0.00 36 1013.2
20260905150557 30 203 1.6 3.2 0.00 0.00 0.00 34 1013.2
20260905150057 31 321 1.6 1.6 0.00 0.00 0.00 34 1013.2
20260905145557 31 256 1.6 1.6 0.00 0.00 0.00 34 1013.2
20260905145057 31 273 1.6 1.6 0.00 0.00 0.00 33 1013.2
20260905144557 31 226 1.6 0.0 0.00 0.00 0.00 32 1013.2
20260905144058 31 357 1.6 1.6 0.00 0.00 0.00 32 1013.2
20260905143557 31 283 1.6 1.6 0.00 0.00 0.00 31 1012.9
20260905143057 31 90 1.6 3.2 0.00 0.00 0.00 32 1013.2
20260905142557 31 322 3.2 3.2 0.00 0.00 0.00 32 1013.2
20260905142057 32 250 4.8 8.0 0.00 0.00 0.00 31 1013.2
20260905141557 32 295 3.2 3.2 0.00 0.00 0.00 30 1012.9
20260905141057 32 210 1.6 3.2 0.00 0.00 0.00 30 1012.9
20260905140557 32 158 1.6 1.6 0.00 0.00 0.00 30 1012.9
20260905140057 33 209 1.6 3.2 0.00 0.00 0.00 27 1012.9
20260905135557 33 257 1.6 1.6 0.00 0.00 0.00 27 1012.9
20260905135057 33 243 1.6 1.6 0.00 0.00 0.00 26 1012.9
20260905134557 33 232 1.6 1.6 0.00 0.00 0.00 26 1012.9
20260905134059 33 93 4.8 4.8 0.00 0.00 0.00 26 1012.9
20260905133558 33 192 1.6 0.0 0.00 0.00 0.00 25 1012.9
20260905133057 33 216 1.6 3.2 0.00 0.00 0.00 24 1012.9
20260905132558 33 201 4.8 8.0 0.00 0.00 0.00 23 1012.9
20260905132057 33 200 4.8 4.8 0.00 0.00 0.00 24 1012.9
20260905131600 33 241 1.6 1.6 0.00 0.00 0.00 23 1012.9
20260905131057 34 204 3.2 3.2 0.00 0.00 0.00 22 1012.9
20260905130141 34 320 1.6 1.6 0.00 0.00 0.00 21 1012.9
20260905125557 35 251 4.8 8.0 0.00 0.00 0.00 20 1012.9